Christchurch, New Zealand

1:43 AM NZDT on February 09, 2016 (GMT +1300)
Christchurch

Weather History for 93780 - April, 2014

Change the Weather History Date:

Sunday, April 6, 2014

  Actual Average Record
Temperature  
Mean Temperature 58 °F -  
Max Temperature 62 °F 59 °F - ()
Min Temperature 55 °F 41 °F - ()
Degree Days  
Heating Degree Days 6    
Growing Degree Days 8 (Base 50)    
Moisture  
Dew Point 55 °F    
Average Humidity 92    
Maximum Humidity 100    
Minimum Humidity 77    
Precipitation  
Precipitation 0.00 in - - ()
Sea Level Pressure  
Sea Level Pressure 30.11 in    
Wind  
Wind Speed 4 mph ()    
Max Wind Speed 10 mph    
Max Gust Speed -    
Visibility 6.1 miles    
Events Rain    
T = Trace of Precipitation, MM = Missing Value Source: Averaged Metar Reports

Daily Weather History Graph

Daily Weather History Graph

Search for Another Location

Airport or City:

Trip Planner

Search our weather history database for the weather conditions in past years. The results will help you decide how hot, cold, wet, or windy it might be!

Date:

Astronomy

Apr. 06, 2014 Rise Set
Actual Time 6:51 AM NZST 6:12 PM NZST
Civil Twilight 6:23 AM NZST 6:40 PM NZST
Nautical Twilight 5:49 AM NZST 7:14 PM NZST
Astronomical Twilight 5:16 AM NZST 7:47 PM NZST
Moon 1:55 PM NZST (4/6) 11:44 PM NZST (4/6)
Length of Visible Light 12h 17m
Length of Day
11h 20m
Waxing Crescent, 37% of the Moon is Illuminated
Apr 6
Waxing Crescent
Apr 7
First Quarter
Apr 15
Full
Apr 22
Last Quarter
Apr 29
New

Hourly Weather History & Observations

Time (NZST) Temp. Dew Point Humidity Pressure Visibility Wind Dir Wind Speed Gust Speed Precip Events Conditions
12:00 AM 55.4 °F 55.4 °F 100% 30.15 in 6.2 mi WSW 3.5 mph - N/A   Mostly Cloudy
12:30 AM 55.4 °F 53.6 °F 94% 30.15 in 6.2 mi WSW 4.6 mph - N/A   Overcast
1:00 AM 55.4 °F 53.6 °F 94% 30.15 in 6.2 mi WSW 4.6 mph - N/A   Overcast
1:30 AM 55.4 °F 53.6 °F 94% 30.15 in 6.2 mi WSW 6.9 mph - N/A   Overcast
2:00 AM 55.4 °F 53.6 °F 94% 30.15 in 6.2 mi WSW 3.5 mph - N/A Rain Light Rain Showers
2:30 AM 55.4 °F 53.6 °F 94% 30.15 in 6.2 mi WSW 3.5 mph - N/A Rain Light Rain
2:00 AM 55.4 °F 53.6 °F 94% 30.15 in 6.2 mi West 3.5 mph - N/A   Overcast
2:30 AM 55.4 °F 53.6 °F 94% 30.15 in 6.2 mi West 3.5 mph - N/A   Overcast
3:00 AM 55.4 °F 53.6 °F 94% 30.15 in 6.2 mi WSW 8.1 mph - N/A   Mostly Cloudy
3:30 AM 55.4 °F 53.6 °F 94% 30.15 in 6.2 mi SW 3.5 mph - N/A   Mostly Cloudy
4:00 AM 55.4 °F 53.6 °F 94% 30.15 in 6.2 mi WSW 5.8 mph - N/A   Overcast
4:30 AM 55.4 °F 53.6 °F 94% 30.12 in 6.2 mi SW 4.6 mph - N/A   Mostly Cloudy
5:00 AM 55.4 °F 53.6 °F 94% 30.12 in 5.6 mi West 2.3 mph - N/A   Mostly Cloudy
5:30 AM 55.4 °F 53.6 °F 94% 30.12 in 5.6 mi SW 4.6 mph - N/A   Mostly Cloudy
6:00 AM 55.4 °F 53.6 °F 94% 30.15 in 6.2 mi WSW 3.5 mph - N/A   Mostly Cloudy
6:30 AM 55.4 °F 53.6 °F 94% 30.15 in 6.2 mi WSW 5.8 mph - N/A   Overcast
7:00 AM 55.4 °F 55.4 °F 100% 30.15 in 3.7 mi WSW 4.6 mph - N/A   Drizzle
7:30 AM 55.4 °F 55.4 °F 100% 30.15 in 3.1 mi SW 3.5 mph - N/A   Overcast
8:00 AM 55.4 °F 55.4 °F 100% 30.15 in 6.2 mi SW 2.3 mph - N/A   Mostly Cloudy
8:30 AM 55.4 °F 55.4 °F 100% 30.15 in 6.2 mi WSW 3.5 mph - N/A Rain Light Rain
9:00 AM 57.2 °F 55.4 °F 94% 30.15 in 6.2 mi SW 5.8 mph - N/A Rain Light Rain
9:30 AM 57.2 °F 55.4 °F 94% 30.15 in 6.2 mi SW 4.6 mph - N/A Rain Light Rain
10:00 AM 57.2 °F 55.4 °F 94% 30.15 in 6.2 mi WSW 4.6 mph - N/A   Overcast
10:30 AM 57.2 °F 55.4 °F 94% 30.15 in 6.2 mi SW 4.6 mph - N/A   Mostly Cloudy
11:00 AM 59.0 °F 55.4 °F 88% 30.15 in 6.2 mi WSW 4.6 mph - N/A   Mostly Cloudy
11:30 AM 59.0 °F 55.4 °F 88% 30.15 in 6.2 mi South 3.5 mph - N/A   Mostly Cloudy
12:00 PM 59.0 °F 55.4 °F 88% 30.12 in 6.2 mi SSW 3.5 mph - N/A   Overcast
12:30 PM 59.0 °F 55.4 °F 88% 30.12 in 6.2 mi SSW 4.6 mph - N/A   Overcast
1:00 PM 60.8 °F 55.4 °F 82% 30.12 in 6.2 mi SW 1.2 mph - N/A   Mostly Cloudy
1:30 PM 60.8 °F 55.4 °F 82% 30.09 in 6.2 mi SE 3.5 mph - N/A   Mostly Cloudy
2:00 PM 62.6 °F 55.4 °F 77% 30.09 in 6.2 mi ESE 2.3 mph - N/A   Mostly Cloudy
2:30 PM 62.6 °F 57.2 °F 82% 30.06 in 6.2 mi East 6.9 mph - N/A   Overcast
3:00 PM 62.6 °F 55.4 °F 77% 30.06 in 6.2 mi East 4.6 mph - N/A   Overcast
3:30 PM 60.8 °F 55.4 °F 82% 30.06 in 6.2 mi East 8.1 mph - N/A   Mostly Cloudy
4:00 PM 60.8 °F 55.4 °F 82% 30.06 in 6.2 mi East 9.2 mph - N/A   Overcast
4:30 PM 60.8 °F 55.4 °F 82% 30.04 in 6.2 mi East 8.1 mph - N/A   Overcast
5:00 PM 59.0 °F 55.4 °F 88% 30.04 in 6.2 mi ENE 9.2 mph - N/A   Partly Cloudy
5:30 PM 59.0 °F 55.4 °F 88% 30.04 in 6.2 mi NE 6.9 mph - N/A   Mostly Cloudy
6:00 PM 59.0 °F 55.4 °F 88% 30.04 in 6.2 mi ENE 10.4 mph - N/A   Mostly Cloudy
6:30 PM 57.2 °F 55.4 °F 94% 30.04 in 6.2 mi ENE 8.1 mph - N/A   Overcast
7:00 PM 57.2 °F 55.4 °F 94% 30.04 in 6.2 mi ENE 8.1 mph - N/A   Overcast
7:30 PM 57.2 °F 55.4 °F 94% 30.04 in 6.2 mi ENE 6.9 mph - N/A   Overcast
8:00 PM 57.2 °F 55.4 °F 94% 30.04 in 6.2 mi ENE 6.9 mph - N/A   Overcast
8:30 PM 57.2 °F 55.4 °F 94% 30.06 in 6.2 mi ENE 6.9 mph - N/A   Overcast
9:00 PM 57.2 °F 55.4 °F 94% 30.06 in 6.2 mi East 6.9 mph - N/A   Overcast
9:30 PM 57.2 °F 55.4 °F 94% 30.06 in 6.2 mi ENE 5.8 mph - N/A   Overcast
10:00 PM 57.2 °F 55.4 °F 94% 30.06 in 6.2 mi East 5.8 mph - N/A   Overcast
10:30 PM 57.2 °F 55.4 °F 94% 30.06 in 6.2 mi East 5.8 mph - N/A   Overcast